Location: ?????????
(55.6553°N, 38.9075°E)
Time: 17:26:17
(UTC+00:00)

Meteor 1-22 Rocket - Pass Details

Date: 18 October 2019
Orbit: 787 x 941 km, 81.2° (Epoch: 20 November)

Event Time Altitude Azimuth Distance (km) Brightness Sun altitude
Rises 01:05:15 0° 344° (NNW) 3,379 7.4 -25.0°
Reaches altitude 10° 01:07:42 10° 342° (NNW) 2,422 6.6 -24.7°
Maximum altitude 01:13:05 66° 261° (W) 874 3.9 -24.0°
Enters shadow 01:13:51 58° 217° (SW) 929 4.1 -23.9°
